K0FJ-1 Weather Reports


Display with metric or nautical units.
time (UTC)temp
F
wind
direction
speed
MPH
gust
MPH
rain 1hr
in
rain 24hr
in
rain mn
in
humidity
%
barometer
mb
20260831172503 86 354 1.0 4.0 0.00 0.13 0.13 53 1018.2
20260831172003 87 325 2.0 5.0 0.00 0.13 0.13 51 1018.2
20260831171503 87 298 1.0 5.0 0.00 0.13 0.13 50 1018.3
20260831171003 87 251 1.0 3.0 0.00 0.13 0.13 51 1018.3
20260831170504 86 191 1.0 5.0 0.00 0.13 0.13 51 1018.3
20260831170003 85 201 2.0 5.0 0.00 0.13 0.13 53 1018.3
20260831165503 84 209 1.0 5.0 0.00 0.13 0.13 53 1018.3
20260831165003 84 226 0.0 3.0 0.00 0.13 0.13 55 1018.3
20260831164503 83 309 1.0 4.0 0.00 0.13 0.13 54 1018.4
20260831164003 83 305 1.0 4.0 0.00 0.13 0.13 55 1018.2
20260831163503 82 282 1.0 4.0 0.00 0.13 0.13 57 1018.2
20260831163003 82 289 1.0 6.0 0.00 0.13 0.13 57 1018.2
20260831162503 81 297 1.0 6.0 0.00 0.13 0.13 59 1018.2
20260831162003 81 286 1.0 4.0 0.00 0.13 0.13 59 1018.3
20260831161503 80 242 1.0 4.0 0.00 0.13 0.13 62 1018.3
20260831161003 80 221 1.0 6.0 0.00 0.13 0.13 61 1018.3
20260831160503 79 238 2.0 6.0 0.00 0.13 0.13 64 1018.3
20260831160003 78 230 1.0 5.0 0.00 0.13 0.13 64 1018.3
20260831155503 78 234 1.0 5.0 0.00 0.13 0.13 66 1018.2
20260831155003 77 274 1.0 4.0 0.00 0.13 0.13 64 1018.2
20260831154503 77 277 1.0 4.0 0.00 0.13 0.13 66 1018.2
20260831154003 77 262 2.0 4.0 0.00 0.13 0.13 67 1018.2
20260831153503 76 249 2.0 4.0 0.00 0.13 0.13 66 1018.1
20260831153003 76 267 1.0 3.0 0.00 0.13 0.13 70 1018.1
20260831152503 76 283 1.0 3.0 0.00 0.13 0.13 72 1018.2
20260831152003 75 248 1.0 4.0 0.00 0.13 0.13 72 1018.2
20260831151503 75 254 2.0 8.0 0.00 0.13 0.13 73 1018.2
20260831151003 75 270 3.0 8.0 0.00 0.13 0.13 73 1018.2
20260831150503 74 279 3.0 6.0 0.00 0.13 0.13 75 1018.2
20260831150003 74 285 2.0 4.0 0.00 0.13 0.13 77 1018.2
20260831145503 73 270 1.0 4.0 0.00 0.13 0.13 80 1018.2
20260831145003 72 257 1.0 5.0 0.00 0.13 0.13 81 1018.2
20260831144503 72 277 2.0 6.0 0.00 0.13 0.13 82 1018.2
20260831144003 72 268 3.0 7.0 0.00 0.13 0.13 81 1018.2
20260831143503 71 267 3.0 7.0 0.00 0.13 0.13 83 1018.2
20260831143003 71 289 3.0 7.0 0.00 0.13 0.13 85 1018.1
20260831142503 70 298 3.0 6.0 0.00 0.13 0.13 86 1018.1
20260831142003 70 296 3.0 7.0 0.00 0.13 0.13 86 1018.2
20260831141503 69 282 2.0 7.0 0.00 0.13 0.13 88 1018.1
20260831141003 69 279 2.0 4.0 0.00 0.13 0.13 89 1018.1
20260831140503 68 298 2.0 4.0 0.00 0.13 0.13 90 1018.1
20260831140003 68 310 1.0 4.0 0.00 0.13 0.13 90 1018.1
20260831135503 67 305 1.0 4.0 0.00 0.13 0.13 91 1017.9
20260831135003 67 297 0.0 3.0 0.00 0.13 0.13 91 1018.0
20260831134503 67 0 0.0 0.0 0.00 0.13 0.13 91 1017.9
20260831134003 67 0 0.0 0.0 0.00 0.13 0.13 91 1018.1
20260831133503 67 0 0.0 0.0 0.00 0.13 0.13 91 1017.9
20260831133003 67 281 0.0 2.0 0.00 0.13 0.13 91 1018.0
20260831132503 67 251 1.0 4.0 0.00 0.13 0.13 92 1018.1
20260831132004 66 278 2.0 6.0 0.00 0.13 0.13 92 1018.0
20260831131503 66 295 2.0 6.0 0.00 0.13 0.13 93 1017.7
20260831131004 66 303 1.0 4.0 0.00 0.13 0.13 94 1017.8
20260831130503 65 308 0.0 4.0 0.00 0.13 0.13 94 1017.7
20260831130003 65 0 0.0 0.0 0.00 0.13 0.13 94 1017.9
20260831125503 65 0 0.0 0.0 0.00 0.13 0.13 94 1017.9
20260831125003 65 0 0.0 0.0 0.00 0.13 0.13 94 1017.7
20260831124503 65 0 0.0 0.0 0.00 0.13 0.13 93 1017.7
20260831124003 65 0 0.0 0.0 0.00 0.13 0.13 93 1017.7
20260831123503 65 0 0.0 0.0 0.00 0.13 0.13 93 1017.6
20260831123003 65 0 0.0 0.0 0.00 0.13 0.13 93 1017.6
20260831122503 65 0 0.0 0.0 0.00 0.13 0.13 93 1017.6
20260831122003 65 0 0.0 0.0 0.00 0.13 0.13 93 1017.5
20260831121503 65 0 0.0 0.0 0.00 0.13 0.13 93 1017.5
20260831121003 65 0 0.0 0.0 0.00 0.13 0.13 93 1017.5
20260831120503 65 0 0.0 0.0 0.00 0.13 0.13 93 1017.5
20260831120003 65 0 0.0 0.0 0.00 0.13 0.13 93 1017.6
20260831115503 65 0 0.0 0.0 0.00 0.13 0.13 93 1017.4
20260831115003 65 0 0.0 0.0 0.00 0.13 0.13 92 1017.4
20260831114503 65 311 0.0 2.0 0.00 0.13 0.13 92 1017.2
20260831114003 66 311 0.0 3.0 0.00 0.13 0.13 92 1017.3
20260831113503 66 311 0.0 3.0 0.00 0.13 0.13 92 1017.2
20260831113003 66 311 0.0 3.0 0.00 0.13 0.13 92 1017.1
20260831112503 66 311 0.0 3.0 0.00 0.13 0.13 92 1017.1
20260831112003 66 311 0.0 3.0 0.00 0.13 0.13 92 1017.1
20260831111503 66 311 1.0 3.0 0.00 0.13 0.13 91 1017.0
20260831111003 66 315 3.0 7.0 0.00 0.13 0.13 91 1017.0
20260831110503 66 312 3.0 7.0 0.00 0.13 0.13 91 1017.1
20260831110003 66 306 2.0 6.0 0.00 0.13 0.13 91 1016.9
20260831105503 66 314 2.0 10.0 0.00 0.13 0.13 91 1016.9
20260831105003 66 326 3.0 10.0 0.00 0.13 0.13 91 1016.7
20260831104503 66 334 1.0 6.0 0.00 0.13 0.13 91 1016.6
20260831104003 66 196 1.0 3.0 0.00 0.13 0.13 92 1016.3
20260831103503 66 194 1.0 3.0 0.00 0.13 0.13 92 1016.0
20260831103003 66 177 0.0 2.0 0.00 0.13 0.13 92 1015.7
20260831102503 66 162 0.0 1.0 0.00 0.13 0.13 92 1015.6
20260831102003 66 171 0.0 2.0 0.00 0.13 0.13 92 1015.6
20260831101503 66 173 0.0 2.0 0.01 0.13 0.13 92 1015.4
20260831101003 66 74 0.0 2.0 0.01 0.13 0.13 92 1015.5
20260831100503 66 108 1.0 3.0 0.01 0.13 0.13 93 1015.2
20260831100003 66 127 0.0 3.0 0.02 0.13 0.13 93 1014.9
20260831095503 66 97 0.0 1.0 0.03 0.13 0.13 93 1015.2
20260831095003 66 0 0.0 0.0 0.04 0.13 0.13 93 1015.5
20260831094503 66 31 0.0 4.0 0.04 0.13 0.13 93 1016.3
20260831094003 66 35 1.0 4.0 0.05 0.13 0.13 93 1016.2
20260831093503 66 37 0.0 4.0 0.05 0.13 0.13 92 1016.2
20260831093003 66 165 0.0 2.0 0.05 0.13 0.13 92 1017.1
20260831092503 67 165 0.0 2.0 0.05 0.13 0.13 92 1017.3
20260831092003 67 165 0.0 2.0 0.06 0.13 0.13 92 1017.3
20260831091503 67 177 1.0 4.0 0.05 0.12 0.12 91 1017.7
20260831091003 67 185 2.0 6.0 0.06 0.12 0.12 91 1017.8
20260831090503 67 186 2.0 6.0 0.06 0.12 0.12 90 1017.9
20260831090003 68 181 2.0 7.0 0.05 0.11 0.11 91 1017.5
20260831085503 68 183 1.0 7.0 0.04 0.10 0.10 91 1017.2
20260831085003 68 178 1.0 6.0 0.03 0.09 0.09 90 1017.2
20260831084503 68 178 2.0 6.0 0.04 0.09 0.09 89 1017.2
20260831084003 68 175 1.0 5.0 0.03 0.08 0.08 88 1017.3
20260831083503 68 165 1.0 5.0 0.03 0.08 0.08 88 1017.0
20260831083003 68 166 1.0 5.0 0.04 0.08 0.08 89 1016.9
20260831082503 68 139 1.0 8.0 0.04 0.08 0.08 89 1016.9
20260831082003 68 153 2.0 11.0 0.03 0.07 0.07 89 1017.0
20260831081503 68 159 3.0 11.0 0.03 0.07 0.07 89 1017.6
20260831081003 68 141 2.0 9.0 0.02 0.06 0.06 89 1018.1
20260831080503 69 135 2.0 7.0 0.02 0.06 0.06 88 1017.5
20260831080003 69 142 2.0 7.0 0.02 0.06 0.06 88 1017.7
20260831075503 69 157 3.0 12.0 0.02 0.06 0.06 87 1017.6
20260831075003 69 170 5.0 12.0 0.02 0.06 0.06 86 1017.8
20260831074503 70 177 6.0 15.0 0.01 0.05 0.05 84 1018.0
20260831074003 70 178 7.0 15.0 0.01 0.05 0.05 82 1018.1
20260831073503 71 176 6.0 16.0 0.02 0.05 0.05 80 1017.9
20260831073003 71 169 4.0 16.0 0.01 0.04 0.04 79 1018.0
20260831072503 71 144 1.0 5.0 0.02 0.04 0.04 79 1017.7
20260831072003 71 159 2.0 9.0 0.02 0.04 0.04 80 1017.8
20260831071503 71 167 2.0 9.0 0.03 0.04 0.04 80 1017.8
20260831071003 71 191 0.0 5.0 0.03 0.04 0.04 80 1017.4
20260831070503 71 0 0.0 0.0 0.03 0.04 0.04 80 1017.3
20260831070003 71 160 0.0 4.0 0.03 0.04 0.04 80 1017.3
20260831065503 71 160 0.0 4.0 0.03 0.04 0.04 82 1017.0
20260831065003 70 162 1.0 7.0 0.04 0.04 0.04 82 1016.5
20260831064503 71 171 2.0 7.0 0.04 0.04 0.04 81 1016.5
20260831064003 71 182 1.0 7.0 0.04 0.04 0.04 81 1017.1
20260831063503 71 0 0.0 0.0 0.03 0.03 0.03 80 1017.5
20260831063003 71 0 0.0 0.0 0.03 0.03 0.03 79 1017.3
20260831062503 71 0 0.0 0.0 0.02 0.02 0.02 78 1017.3
20260831062003 72 0 0.0 0.0 0.02 0.02 0.02 78 1017.7
20260831061503 71 33 1.0 7.0 0.01 0.01 0.01 75 1017.7
20260831061003 71 336 3.0 12.0 0.01 0.01 0.01 73 1017.6
20260831060503 72 312 6.0 13.0 0.01 0.01 0.01 74 1017.9
20260831060003 73 299 8.0 15.0 0.01 0.01 0.01 71 1018.4
20260831055503 74 290 7.0 15.0 0.01 0.01 0.01 66 1018.2
20260831055003 77 291 4.0 9.0 0.00 0.00 0.00 64 1018.0
20260831054503 78 298 2.0 8.0 0.00 0.00 0.00 60 1017.4
20260831054003 78 220 1.0 5.0 0.00 0.00 0.00 56 1017.0
20260831053503 78 204 1.0 5.0 0.00 0.00 0.00 56 1017.0
20260831053003 78 312 0.0 3.0 0.00 0.00 0.00 56 1016.9
20260831052503 78 351 0.0 2.0 0.00 0.00 0.00 56 1016.5
20260831052003 78 0 0.0 0.0 0.00 0.00 0.00 56 1016.4
20260831051503 78 0 0.0 0.0 0.00 0.00 0.00 57 1016.2
20260831051003 78 327 1.0 5.0 0.00 0.00 0.00 55 1016.0
20260831050503 78 331 2.0 5.0 0.00 0.00 0.00 55 1016.1
20260831050004 78 339 1.0 4.0 0.00 0.00 0.00 55 1016.0
20260831045503 78 360 0.0 2.0 0.00 0.00 0.00 55 1015.9
20260831045003 78 3 1.0 3.0 0.00 0.00 0.00 54 1015.9
20260831044503 78 354 1.0 5.0 0.00 0.00 0.00 54 1015.7
20260831044003 78 345 2.0 6.0 0.00 0.00 0.00 54 1015.8
20260831043503 79 329 4.0 8.0 0.00 0.00 0.00 53 1015.9
20260831043003 79 321 3.0 8.0 0.00 0.00 0.00 53 1016.1
20260831042503 79 320 3.0 7.0 0.00 0.00 0.00 53 1016.1
20260831042003 79 320 3.0 7.0 0.00 0.00 0.00 53 1016.0
20260831041503 80 325 4.0 7.0 0.00 0.00 0.00 53 1015.7
20260831041003 80 325 3.0 7.0 0.00 0.00 0.00 52 1015.7
20260831040503 80 328 3.0 5.0 0.00 0.00 0.00 52 1015.5
20260831040003 80 332 2.0 5.0 0.00 0.00 0.00 52 1015.4
20260831035503 80 332 1.0 5.0 0.00 0.00 0.00 52 1015.5
20260831035003 80 304 0.0 2.0 0.00 0.00 0.00 53 1015.3
20260831034503 81 311 1.0 4.0 0.00 0.00 0.00 53 1015.5
20260831034003 81 318 2.0 5.0 0.00 0.00 0.00 52 1015.6
20260831033503 80 320 3.0 6.0 0.00 0.00 0.00 53 1015.6
20260831033003 80 328 4.0 9.0 0.00 0.00 0.00 53 1015.5
20260831032503 80 322 5.0 11.0 0.00 0.00 0.00 53 1015.4
20260831032003 80 310 3.0 11.0 0.00 0.00 0.00 54 1015.5
20260831031503 79 306 0.0 8.0 0.00 0.00 0.00 57 1015.5
20260831031003 79 0 0.0 0.0 0.00 0.00 0.00 57 1015.1
20260831030503 80 0 0.0 0.0 0.00 0.00 0.00 56 1015.0
20260831030003 80 0 0.0 0.0 0.00 0.00 0.00 54 1015.0
20260831025503 80 0 0.0 0.0 0.00 0.00 0.00 55 1015.2
20260831025003 80 0 0.0 0.0 0.00 0.00 0.00 54 1015.2
20260831024503 81 0 0.0 0.0 0.00 0.00 0.00 53 1015.2
20260831024003 81 0 0.0 0.0 0.00 0.00 0.00 52 1015.0
20260831023503 81 0 0.0 0.0 0.00 0.00 0.00 53 1014.9
20260831023003 81 0 0.0 0.0 0.00 0.00 0.00 52 1014.8
20260831022503 81 0 0.0 0.0 0.00 0.00 0.00 52 1014.6
20260831022003 82 0 0.0 0.0 0.00 0.00 0.00 53 1014.6
20260831021503 82 0 0.0 0.0 0.00 0.00 0.00 52 1014.6
20260831021003 82 0 0.0 0.0 0.00 0.00 0.00 51 1014.5
20260831020503 83 0 0.0 0.0 0.00 0.00 0.00 52 1014.4
20260831020003 83 0 0.0 0.0 0.00 0.00 0.00 51 1014.3
20260831015503 83 0 0.0 0.0 0.00 0.00 0.00 51 1014.4
20260831015003 84 0 0.0 0.0 0.00 0.00 0.00 52 1014.4
20260831014503 84 0 0.0 0.0 0.00 0.00 0.00 51 1014.4
20260831014003 84 0 0.0 0.0 0.00 0.00 0.00 50 1014.4
20260831013503 84 0 0.0 0.0 0.00 0.00 0.00 48 1014.5
20260831013003 85 0 0.0 0.0 0.00 0.00 0.00 48 1014.4
20260831012503 85 0 0.0 0.0 0.00 0.00 0.00 47 1014.4
20260831012003 85 0 0.0 0.0 0.00 0.00 0.00 48 1014.4
20260831011503 86 0 0.0 0.0 0.00 0.00 0.00 48 1014.2
20260831011003 86 0 0.0 0.0 0.00 0.00 0.00 47 1014.0
20260831010503 87 0 0.0 0.0 0.00 0.00 0.00 47 1014.0
20260831010003 87 0 0.0 0.0 0.00 0.00 0.00 47 1013.9
20260831005503 88 0 0.0 0.0 0.00 0.00 0.00 46 1013.8
20260831005003 89 0 0.0 0.0 0.00 0.00 0.00 45 1013.7
20260831004503 89 0 0.0 0.0 0.00 0.00 0.00 45 1013.7
20260831004003 90 0 0.0 0.0 0.00 0.00 0.00 45 1013.7
20260831003503 90 0 0.0 0.0 0.00 0.00 0.00 44 1013.8
20260831003003 90 0 0.0 0.0 0.00 0.00 0.00 42 1013.9
20260831002503 91 0 0.0 0.0 0.00 0.00 0.00 42 1013.9
20260831002003 91 0 0.0 0.0 0.00 0.00 0.00 41 1013.9
20260831001503 91 0 0.0 0.0 0.00 0.00 0.00 42 1013.8
20260831001003 91 0 0.0 0.0 0.00 0.00 0.00 42 1013.9
20260831000503 91 0 0.0 0.0 0.00 0.00 0.00 40 1013.9
20260831000003 91 0 0.0 0.0 0.00 0.00 0.00 40 1013.9
20260830235503 92 0 0.0 0.0 0.00 0.00 0.00 38 1013.9
20260830235003 93 0 0.0 0.0 0.00 0.00 0.00 37 1013.8
20260830234503 94 0 0.0 0.0 0.00 0.00 0.00 36 1013.7
20260830234003 95 0 0.0 0.0 0.00 0.00 0.00 36 1013.7
20260830233503 95 0 0.0 0.0 0.00 0.00 0.00 35 1013.8
20260830233003 95 0 0.0 0.0 0.00 0.00 0.00 35 1013.7
20260830232503 96 100 0.0 1.0 0.00 0.00 0.00 35 1013.6
20260830232003 96 100 0.0 1.0 0.00 0.00 0.00 34 1013.6
20260830231503 96 111 0.0 1.0 0.00 0.00 0.00 34 1013.7
20260830231003 96 111 0.0 1.0 0.00 0.00 0.00 34 1013.6
20260830230503 97 113 0.0 1.0 0.00 0.00 0.00 35 1013.6
20260830230003 97 115 0.0 1.0 0.00 0.00 0.00 34 1013.5
20260830225503 96 128 0.0 1.0 0.00 0.00 0.00 35 1013.5
20260830225003 95 153 0.0 2.0 0.00 0.00 0.00 34 1013.6
20260830224503 94 159 0.0 2.0 0.00 0.00 0.00 35 1013.5
20260830224003 93 0 0.0 0.0 0.00 0.00 0.00 37 1013.4
20260830223503 93 0 0.0 0.0 0.00 0.00 0.00 39 1013.4
20260830223003 93 0 0.0 0.0 0.00 0.00 0.00 38 1013.4
20260830222503 93 117 0.0 1.0 0.00 0.00 0.00 37 1013.4
20260830222003 94 115 0.0 1.0 0.00 0.00 0.00 35 1013.3
20260830221503 95 115 0.0 1.0 0.00 0.00 0.00 34 1013.2
20260830221003 96 0 0.0 0.0 0.00 0.00 0.00 34 1013.3
20260830220503 97 160 0.0 2.0 0.00 0.00 0.00 33 1013.3
20260830220003 97 119 0.0 3.0 0.00 0.00 0.00 32 1013.3
20260830215503 97 172 1.0 4.0 0.00 0.00 0.00 31 1013.3
20260830215003 97 189 0.0 4.0 0.00 0.00 0.00 34 1013.4
20260830214503 96 0 0.0 0.0 0.00 0.00 0.00 33 1013.4
20260830214003 96 0 0.0 0.0 0.00 0.00 0.00 35 1013.5
20260830213503 96 5 0.0 1.0 0.00 0.00 0.00 35 1013.6
20260830213003 95 5 0.0 1.0 0.00 0.00 0.00 34 1013.6
20260830212503 95 5 0.0 2.0 0.00 0.00 0.00 34 1013.5
20260830212003 95 315 2.0 4.0 0.00 0.00 0.00 35 1013.6
20260830211503 95 329 3.0 6.0 0.00 0.00 0.00 33 1013.6
20260830211003 95 334 3.0 8.0 0.00 0.00 0.00 31 1013.5
20260830210503 95 316 2.0 8.0 0.00 0.00 0.00 32 1013.6
20260830210003 96 208 2.0 7.0 0.00 0.00 0.00 31 1013.7
20260830205503 96 186 4.0 8.0 0.00 0.00 0.00 31 1013.7
20260830205003 96 182 4.0 10.0 0.00 0.00 0.00 30 1013.7
20260830204503 97 177 2.0 10.0 0.00 0.00 0.00 31 1013.7
20260830204003 96 165 1.0 5.0 0.00 0.00 0.00 32 1013.7
20260830203503 96 34 0.0 2.0 0.00 0.00 0.00 34 1013.8
20260830203003 95 57 1.0 4.0 0.00 0.00 0.00 33 1013.9
20260830202503 96 144 1.0 8.0 0.00 0.00 0.00 36 1013.9
20260830202003 95 249 1.0 8.0 0.00 0.00 0.00 33 1013.9
20260830201503 95 280 1.0 4.0 0.00 0.00 0.00 32 1013.9
20260830201003 94 262 2.0 5.0 0.00 0.00 0.00 32 1014.0
20260830200503 94 280 2.0 5.0 0.00 0.00 0.00 33 1014.0
20260830200003 93 324 1.0 4.0 0.00 0.00 0.00 33 1014.0
20260830195503 93 337 0.0 3.0 0.00 0.00 0.00 36 1014.1
20260830195003 94 0 0.0 0.0 0.00 0.00 0.00 34 1014.2
20260830194503 94 0 0.0 0.0 0.00 0.00 0.00 33 1014.1
20260830194003 93 20 1.0 3.0 0.00 0.00 0.00 37 1014.1
20260830193503 93 20 1.0 3.0 0.00 0.00 0.00 33 1014.1
20260830193003 93 20 0.0 3.0 0.00 0.00 0.00 37 1014.1
20260830192503 93 20 0.0 3.0 0.00 0.00 0.00 35 1014.2
20260830192003 93 20 0.0 1.0 0.00 0.00 0.00 36 1014.2
20260830191503 93 17 0.0 2.0 0.00 0.00 0.00 37 1014.2
20260830191003 92 9 0.0 3.0 0.00 0.00 0.00 35 1014.2
20260830190503 92 2 1.0 3.0 0.00 0.00 0.00 33 1014.2
20260830190003 91 11 1.0 3.0 0.00 0.00 0.00 36 1014.3
20260830185503 90 324 2.0 7.0 0.00 0.00 0.00 37 1014.2
20260830185003 90 313 2.0 7.0 0.00 0.00 0.00 37 1014.2
20260830184503 90 334 1.0 6.0 0.00 0.00 0.00 36 1014.3
20260830184003 90 334 1.0 4.0 0.00 0.00 0.00 39 1014.4
20260830183503 89 326 3.0 7.0 0.00 0.00 0.00 40 1014.4
20260830183003 88 332 2.0 7.0 0.00 0.00 0.00 39 1014.4
20260830182503 88 350 1.0 6.0 0.00 0.00 0.00 38 1014.5
20260830182003 88 9 2.0 5.0 0.00 0.00 0.00 40 1014.6
20260830181503 88 12 2.0 5.0 0.00 0.00 0.00 40 1014.6
20260830181003 89 4 2.0 5.0 0.00 0.00 0.00 41 1014.6
20260830180503 88 352 2.0 5.0 0.00 0.00 0.00 43 1014.6
20260830180003 87 342 3.0 9.0 0.00 0.00 0.00 44 1014.7
20260830175503 87 333 3.0 9.0 0.00 0.00 0.00 44 1014.7
20260830175003 88 340 2.0 9.0 0.00 0.00 0.00 41 1014.7
20260830174503 88 328 3.0 8.0 0.00 0.00 0.00 43 1014.7
20260830174003 88 322 5.0 11.0 0.00 0.00 0.00 44 1014.7
20260830173503 88 329 5.0 11.0 0.00 0.00 0.00 44 1015.0
20260830173003 87 342 4.0 10.0 0.00 0.00 0.00 45 1014.9